Hourly Weather Barnstaple

Today, 27 September, Sunday

Time Temperature Precipitation Wind Pressure Humidity
00:00 +7°C° 0 mm 5 mps 756 mmHg 82%
01:00 +7°C° 0 mm 5 mps 756 mmHg 84%
02:00 +7°C° 0 mm 6 mps 756 mmHg 86%
03:00 +7°C° 0 mm 6 mps 756 mmHg 87%
04:00 +7°C° 0 mm 6 mps 756 mmHg 88%
05:00 +7°C° 0 mm 6 mps 756 mmHg 88%
06:00 +8°C° 0 mm 6 mps 756 mmHg 88%
07:00 +9°C° 0 mm 6 mps 756 mmHg 85%
08:00 +10°C° 0 mm 7 mps 756 mmHg 81%
09:00 +11°C° 0 mm 7 mps 756 mmHg 78%
10:00 +11°C° 0 mm 7 mps 756 mmHg 76%
11:00 +13°C° 0 mm 6 mps 755 mmHg 73%
12:00 +14°C° 0 mm 6 mps 755 mmHg 71%
13:00 +14°C° 0 mm 6 mps 755 mmHg 70%
14:00 +14°C° 0 mm 6 mps 755 mmHg 70%
15:00 +14°C° 0 mm 6 mps 755 mmHg 69%
16:00 +11°C° 0 mm 6 mps 755 mmHg 74%
17:00 +10°C° 0 mm 5 mps 755 mmHg 79%
18:00 +8°C° 0 mm 5 mps 755 mmHg 84%
19:00 +7°C° 0 mm 5 mps 755 mmHg 84%
20:00 +7°C° 0 mm 4 mps 755 mmHg 84%
21:00 +6°C° 0 mm 4 mps 755 mmHg 85%
22:00 +7°C° 0 mm 3 mps 755 mmHg 84%
23:00 +7°C° 0 mm 3 mps 755 mmHg 84%

Tomorrow, 28 September, Monday

Time Temperature Precipitation Wind Pressure Humidity
00:00 +7°C° 0 mm 2 mps 755 mmHg 83%
01:00 +7°C° 0 mm 2 mps 755 mmHg 83%
02:00 +8°C° 0 mm 1 mps 754 mmHg 84%
03:00 +8°C° 0 mm 1 mps 754 mmHg 84%
04:00 +8°C° 0 mm 1 mps 754 mmHg 85%
05:00 +8°C° 0 mm 2 mps 754 mmHg 86%
06:00 +8°C° 0 mm 2 mps 754 mmHg 88%
07:00 +10°C° 0 mm 3 mps 753 mmHg 88%
08:00 +12°C° 0 mm 3 mps 753 mmHg 88%
09:00 +14°C° 0 mm 3 mps 753 mmHg 87%
10:00 +15°C° 0 mm 4 mps 753 mmHg 84%
11:00 +16°C° 0 mm 5 mps 753 mmHg 81%
12:00 +17°C° 0 mm 5 mps 753 mmHg 78%
13:00 +17°C° 0 mm 5 mps 753 mmHg 84%
14:00 +16°C° 0 mm 5 mps 753 mmHg 89%
15:00 +16°C° 0 mm 5 mps 753 mmHg 94%
16:00 +15°C° 0 mm 5 mps 753 mmHg 95%
17:00 +15°C° 0 mm 5 mps 753 mmHg 95%
18:00 +15°C° 0 mm 4 mps 753 mmHg 95%
19:00 +14°C° 0 mm 4 mps 754 mmHg 95%
20:00 +14°C° 0 mm 4 mps 754 mmHg 94%
21:00 +13°C° 0 mm 4 mps 754 mmHg 93%
22:00 +12°C° 0 mm 4 mps 754 mmHg 93%
23:00 +11°C° 0 mm 3 mps 755 mmHg 92%

Day after tomorrow, 29 September, Tuesday

Time Temperature Precipitation Wind Pressure Humidity
00:00 +11°C° 0 mm 3 mps 755 mmHg 92%
01:00 +10°C° 0 mm 3 mps 755 mmHg 92%
02:00 +10°C° 0 mm 2 mps 755 mmHg 91%
03:00 +9°C° 0 mm 2 mps 755 mmHg 91%
04:00 +9°C° 0 mm 2 mps 755 mmHg 91%
05:00 +9°C° 0 mm 2 mps 755 mmHg 91%
06:00 +9°C° 0 mm 2 mps 755 mmHg 90%
07:00 +10°C° 0.1 mm 2 mps 755 mmHg 87%
08:00 +13°C° 0.1 mm 2 mps 755 mmHg 83%
09:00 +14°C° 0.1 mm 2 mps 756 mmHg 79%
10:00 +14°C° 0.1 mm 3 mps 756 mmHg 76%
11:00 +14°C° 0.1 mm 3 mps 756 mmHg 73%
12:00 +14°C° 0.1 mm 4 mps 756 mmHg 70%
13:00 +14°C° 0 mm 4 mps 756 mmHg 68%
14:00 +14°C° 0 mm 4 mps 755 mmHg 66%
15:00 +14°C° 0 mm 4 mps 755 mmHg 64%
16:00 +13°C° 0 mm 4 mps 755 mmHg 71%
17:00 +11°C° 0 mm 4 mps 754 mmHg 77%
18:00 +10°C° 0 mm 3 mps 754 mmHg 84%
19:00 +8°C° 0 mm 4 mps 754 mmHg 85%
20:00 +8°C° 0 mm 4 mps 754 mmHg 86%
21:00 +8°C° 0 mm 4 mps 754 mmHg 87%
22:00 +8°C° 0 mm 5 mps 753 mmHg 87%
23:00 +8°C° 0 mm 5 mps 753 mmHg 88%

30 September, Wednesday

Time Temperature Precipitation Wind Pressure Humidity
00:00 +8°C° 0 mm 5 mps 752 mmHg 88%
01:00 +8°C° 0 mm 5 mps 752 mmHg 88%
02:00 +9°C° 0 mm 6 mps 751 mmHg 88%
03:00 +9°C° 0 mm 6 mps 750 mmHg 88%
04:00 +9°C° 0.1 mm 6 mps 750 mmHg 89%
05:00 +10°C° 0.1 mm 7 mps 749 mmHg 91%
06:00 +10°C° 0.1 mm 7 mps 748 mmHg 92%
07:00 +11°C° 0.4 mm 8 mps 748 mmHg 93%
08:00 +11°C° 0.4 mm 9 mps 747 mmHg 94%
09:00 +12°C° 0.4 mm 9 mps 747 mmHg 94%
10:00 +12°C° 1 mm 8 mps 746 mmHg 93%
11:00 +12°C° 1 mm 8 mps 746 mmHg 92%
12:00 +14°C° 1 mm 7 mps 745 mmHg 91%
13:00 +14°C° 0.4 mm 7 mps 745 mmHg 91%
14:00 +14°C° 0.4 mm 7 mps 744 mmHg 90%
15:00 +12°C° 0.4 mm 7 mps 744 mmHg 90%
16:00 +13°C° 0.2 mm 6 mps 743 mmHg 91%
17:00 +12°C° 0.2 mm 5 mps 743 mmHg 92%
18:00 +12°C° 0.2 mm 5 mps 743 mmHg 94%
19:00 +12°C° 0.1 mm 4 mps 742 mmHg 94%
20:00 +11°C° 0.1 mm 4 mps 742 mmHg 94%
21:00 +11°C° 0.1 mm 4 mps 742 mmHg 94%
22:00 +11°C° 0.2 mm 4 mps 741 mmHg 93%
23:00 +10°C° 0.2 mm 4 mps 741 mmHg 93%

1 October, Thursday

Time Temperature Precipitation Wind Pressure Humidity
00:00 +10°C° 0.2 mm 4 mps 740 mmHg 93%
01:00 +10°C° 0.1 mm 4 mps 740 mmHg 93%
02:00 +10°C° 0.1 mm 4 mps 740 mmHg 92%
03:00 +8°C° 0.1 mm 4 mps 739 mmHg 91%
04:00 +9°C° 0 mm 3 mps 739 mmHg 91%
05:00 +8°C° 0 mm 3 mps 739 mmHg 91%
06:00 +8°C° 0 mm 3 mps 739 mmHg 90%
07:00 +9°C° 0 mm 3 mps 739 mmHg 87%
08:00 +10°C° 0 mm 3 mps 739 mmHg 84%
09:00 +11°C° 0 mm 3 mps 739 mmHg 80%
10:00 +12°C° 0.2 mm 3 mps 739 mmHg 77%
11:00 +12°C° 0.2 mm 3 mps 738 mmHg 74%
12:00 +13°C° 0.2 mm 3 mps 738 mmHg 70%
13:00 +12°C° 0.2 mm 3 mps 738 mmHg 72%
14:00 +12°C° 0.2 mm 4 mps 738 mmHg 73%
15:00 +12°C° 0.2 mm 4 mps 738 mmHg 74%
16:00 +11°C° 0.1 mm 4 mps 738 mmHg 78%
17:00 +10°C° 0.1 mm 4 mps 738 mmHg 82%
18:00 +8°C° 0.1 mm 5 mps 738 mmHg 85%
19:00 +7°C° 0 mm 4 mps 739 mmHg 85%
20:00 +7°C° 0 mm 4 mps 739 mmHg 85%
21:00 +6°C° 0 mm 4 mps 739 mmHg 85%
22:00 +7°C° 0.1 mm 3 mps 739 mmHg 85%
23:00 +5°C° 0.1 mm 3 mps 739 mmHg 85%

2 October, Friday

Time Temperature Precipitation Wind Pressure Humidity
00:00 +6°C° 0.1 mm 2 mps 739 mmHg 85%
01:00 +6°C° 0.6 mm 2 mps 739 mmHg 88%
02:00 +7°C° 0.6 mm 3 mps 739 mmHg 90%
03:00 +7°C° 0.6 mm 3 mps 738 mmHg 93%
04:00 +7°C° 1.3 mm 3 mps 738 mmHg 93%
05:00 +7°C° 1.3 mm 2 mps 738 mmHg 93%
06:00 +7°C° 1.3 mm 2 mps 738 mmHg 93%
07:00 +7°C° 0.6 mm 2 mps 738 mmHg 90%
08:00 +8°C° 0.6 mm 2 mps 738 mmHg 87%
09:00 +8°C° 0.6 mm 2 mps 737 mmHg 84%
10:00 +9°C° 0.1 mm 2 mps 737 mmHg 79%
11:00 +10°C° 0.1 mm 2 mps 737 mmHg 74%
12:00 +10°C° 0.1 mm 2 mps 737 mmHg 69%
13:00 +10°C° 0.1 mm 2 mps 737 mmHg 69%
14:00 +10°C° 0.1 mm 3 mps 736 mmHg 69%
15:00 +10°C° 0.1 mm 4 mps 736 mmHg 69%
16:00 +8°C° 0 mm 4 mps 736 mmHg 76%
17:00 +7°C° 0 mm 4 mps 736 mmHg 83%
18:00 +5°C° 0 mm 4 mps 735 mmHg 90%
19:00 +5°C° 0 mm 5 mps 736 mmHg 89%
20:00 +5°C° 0 mm 5 mps 736 mmHg 88%
21:00 +5°C° 0 mm 5 mps 736 mmHg 87%
22:00 +5°C° 0 mm 6 mps 736 mmHg 86%
23:00 +5°C° 0 mm 6 mps 736 mmHg 84%
Show more